{"data":{"norad_id":60531,"intl_designator":"2024-149BR","name":"HYPSO-2","alt_names":[],"object_type":"PAYLOAD","status":"ACTIVE","operator":null,"country":"NOR","launch_date":"2024-08-16","launch_site_code":"AFWTR","launch_vehicle":null,"mission":null,"orbit_class":"UNKNOWN","rcs_meters":null,"size_class":null,"mass_kg":null,"dimensions":null,"purposes":[],"wikipedia_slug":null,"has_3d_model":false,"image_url":null,"decayed_at":null,"tle_current":{"epoch":"2026-09-22T12:37:54.976800Z","epoch_age_seconds":114088,"freshness":"FRESH","line1":"1 60531U 24149BR  26265.52633075  .00000895  00000+0  78387-4 0  9995","line2":"2 60531  97.6746 340.3589 0001256  21.6199 338.5077 14.99164904114635","mean_motion":14.99164904,"eccentricity":0.0001256,"inclination_deg":97.6746,"raan_deg":340.3589,"arg_perigee_deg":21.6199,"mean_anomaly_deg":338.5077,"bstar":7.8387e-5,"rev_number":11463,"period_min":96.053475915682,"perigee_km":568.60259740656,"apogee_km":570.34783759559,"semimajor_km":6947.6122175011,"source":"CELESTRAK","updated_at":"2026-09-23T09:00:20.668236Z"}}}